Bishops Head, MD NWLON current weather conditions

sailwx.info

Wind from 205 at 8 knots gusting 10

Air temperature 27.2° C

Last reported at 2015-Jul-07 16:36 UTC.
Time now 2015-Jul-07 17:38 UTC

Location: N 38°13' W 076°02'.
View on Google Maps.

See reports from other nearby stations

  
Tides and Currents Weather Stations Pressure Air Temp Water Temp Dewpoint Dewpoint Depression Visibility Wind Speed Wind Dir Waves Ship Positions
date/time (UTC)wind fromknots sea level pressurealtimeterstation pressurevisibilityair tempwater tempwave heightnotes
2015-Jul-07 16:36 205 8 gusting 10 27.2
2015-Jul-07 16:30 213 8 gusting 12 27.2
2015-Jul-07 16:18 193 9 gusting 11 26.7
2015-Jul-07 16:12 202 8 gusting 11 27.2
2015-Jul-07 15:36 224 7 gusting 9 26.7
2015-Jul-07 15:12 202 5 gusting 9 26.1
2015-Jul-07 15:06 228 7 gusting 10 26.1
2015-Jul-07 14:30 237 9 gusting 12 25.6
2015-Jul-07 14:24 240 10 gusting 12 25.6
2015-Jul-07 14:18 243 9 gusting 11 25.6
2015-Jul-07 14:12 243 9 gusting 12 25.6
2015-Jul-07 14:06 240 10 gusting 13 25.6
2015-Jul-07 14:00 246 11 gusting 13 25.6
2015-Jul-07 13:54 240 11 gusting 14 25.6
2015-Jul-07 13:48 236 13 gusting 14 25.6
2015-Jul-07 13:36 221 11 gusting 12 25.6
2015-Jul-07 13:30 230 11 gusting 12 25.6
2015-Jul-07 13:24 237 10 gusting 13 25.6
2015-Jul-07 13:18 231 11 gusting 13 25.6
2015-Jul-07 13:12 231 11 gusting 13 25.6
2015-Jul-07 13:06 238 12 gusting 15 25.6
2015-Jul-07 13:00 233 13 gusting 15 25.6
2015-Jul-07 12:54 234 14 gusting 16 25.6
2015-Jul-07 12:48 234 14 gusting 16 25.6
2015-Jul-07 12:36 219 13 gusting 14 25.6
2015-Jul-07 12:30 220 12 gusting 13 25.6
2015-Jul-07 12:24 215 10 gusting 13 25.6
2015-Jul-07 12:18 215 12 gusting 14 25.6
2015-Jul-07 12:12 227 13 gusting 15 25.6
2015-Jul-07 12:06 224 13 gusting 16 25.6
2015-Jul-07 12:00 225 13 gusting 15 25.6
2015-Jul-07 11:54 223 13 gusting 16 25.6
2015-Jul-07 11:48 230 14 gusting 17 25.6
2015-Jul-07 11:36 220 16 gusting 18 25.6
2015-Jul-07 11:30 223 14 gusting 17 25.6
2015-Jul-07 11:24 218 13 gusting 14 26.1
2015-Jul-07 11:18 214 13 gusting 14 26.1
2015-Jul-07 11:12 211 11 gusting 12 26.1
2015-Jul-07 11:06 209 11 gusting 13 26.1
2015-Jul-07 11:00 206 12 gusting 13 26.1
2015-Jul-07 10:54 212 11 gusting 14 26.1
2015-Jul-07 10:48 216 12 gusting 15 26.1
2015-Jul-07 10:36 223 12 gusting 13 25.6
2015-Jul-07 10:30 222 12 gusting 14 25.6
2015-Jul-07 10:24 217 13 gusting 15 25.6
2015-Jul-07 10:18 220 13 gusting 14 25.6
2015-Jul-07 10:12 216 12 gusting 15 25.6
2015-Jul-07 10:06 220 13 gusting 16 25.6
2015-Jul-07 10:00 218 13 gusting 15 25.6
2015-Jul-07 09:54 217 13 gusting 15 25.6
2015-Jul-07 09:48 215 13 gusting 15 25.6
2015-Jul-07 09:36 214 15 gusting 17 26.1
2015-Jul-07 09:30 216 13 gusting 16 26.1
2015-Jul-07 09:24 215 13 gusting 15 26.1
2015-Jul-07 09:18 212 12 gusting 15 26.1
2015-Jul-07 09:12 213 13 gusting 15 26.1
2015-Jul-07 09:06 210 13 gusting 16 26.1
2015-Jul-07 09:00 212 13 gusting 16 26.1
2015-Jul-07 08:54 208 14 gusting 16 26.1
2015-Jul-07 08:48 212 14 gusting 17 26.1
2015-Jul-07 08:36 212 13 gusting 15 26.1
2015-Jul-07 08:30 210 11 gusting 16 26.1
2015-Jul-07 08:24 216 13 gusting 16 26.1
2015-Jul-07 08:18 213 11 gusting 15 26.1
2015-Jul-07 08:12 219 13 gusting 13 26.1
2015-Jul-07 08:06 212 11 gusting 13 26.1
2015-Jul-07 08:00 205 11 gusting 14 26.1
2015-Jul-07 07:54 207 13 gusting 15 26.1
2015-Jul-07 07:48 208 13 gusting 14 26.1
2015-Jul-07 07:36 214 11 gusting 12 26.1
2015-Jul-07 07:30 214 11 gusting 13 26.1
2015-Jul-07 07:24 213 12 gusting 13 26.1
2015-Jul-07 07:18 212 10 gusting 12 26.1
2015-Jul-07 07:12 206 10 gusting 12 26.1
2015-Jul-07 07:06 208 10 gusting 12 26.1
2015-Jul-07 07:00 208 11 gusting 13 26.1
2015-Jul-07 06:54 203 12 gusting 13 26.1
2015-Jul-07 06:48 205 12 gusting 13 26.1
2015-Jul-07 06:36 208 12 gusting 13 26.1
2015-Jul-07 06:30 205 11 gusting 12 26.1
2015-Jul-07 06:24 201 10 gusting 12 26.1
2015-Jul-07 06:18 193 11 gusting 13 26.7
2015-Jul-07 06:12 194 11 gusting 13 26.1
2015-Jul-07 06:06 200 12 gusting 13 26.7
2015-Jul-07 06:00 197 11 gusting 12 26.1
2015-Jul-07 05:54 199 11 gusting 12 26.7
2015-Jul-07 05:48 197 11 gusting 13 26.7
2015-Jul-07 05:36 197 11 gusting 14 26.7
2015-Jul-07 05:30 198 11 gusting 13 26.7
2015-Jul-07 05:24 196 13 gusting 15 26.7
2015-Jul-07 05:18 199 12 gusting 15 26.7
2015-Jul-07 05:12 196 13 gusting 16 26.7
2015-Jul-07 05:06 192 14 gusting 17 26.7
2015-Jul-07 05:00 192 13 gusting 17 26.7
2015-Jul-07 04:54 191 14 gusting 17 26.7
2015-Jul-07 04:48 190 14 gusting 16 26.7
2015-Jul-07 04:36 187 13 gusting 14 26.7
2015-Jul-07 04:30 180 11 gusting 13 26.7
2015-Jul-07 04:24 178 13 gusting 15 26.7
2015-Jul-07 04:18 176 14 gusting 14 26.7
2015-Jul-07 04:12 177 12 gusting 15 26.7
2015-Jul-07 04:06 174 13 gusting 14 26.7
2015-Jul-07 04:00 168 14 gusting 18 26.7
2015-Jul-07 03:54 165 13 gusting 16 26.7
2015-Jul-07 03:48 163 15 gusting 19 26.7
2015-Jul-07 03:36 160 15 gusting 16 26.7
2015-Jul-07 03:30 161 14 gusting 16 26.7
2015-Jul-07 03:24 147 13 gusting 15 26.7
2015-Jul-07 03:18 150 13 gusting 15 26.7
2015-Jul-07 03:12 145 12 gusting 14 26.7
2015-Jul-07 03:06 147 11 gusting 13 26.7
2015-Jul-07 03:00 147 13 gusting 14 26.7
2015-Jul-07 02:54 155 9 gusting 10 26.7
2015-Jul-07 02:48 169 8 gusting 9 26.1
2015-Jul-07 02:42 197 7 gusting 11 26.1
2015-Jul-07 02:36 169 9 gusting 11 26.1
2015-Jul-07 02:30 173 8 gusting 9 26.7
2015-Jul-07 02:24 173 8 gusting 10 26.7
2015-Jul-07 02:18 167 7 gusting 9 26.1
2015-Jul-07 02:12 172 6 gusting 7 26.1
2015-Jul-07 02:06 179 6 gusting 8 25.6
2015-Jul-07 02:00 177 7 gusting 8 25.6
2015-Jul-07 01:54 187 5 gusting 6 25.6
2015-Jul-07 01:48 203 5 gusting 10 25.0
2015-Jul-07 01:36 210 15 gusting 19 23.9
2015-Jul-07 01:30 217 17 gusting 22 24.4
2015-Jul-07 01:24 212 13 gusting 14 26.7
2015-Jul-07 01:18 217 8 gusting 12 26.1
2015-Jul-07 01:12 242 7 gusting 11 26.1
2015-Jul-07 01:06 251 9 gusting 11 26.1
2015-Jul-07 01:00 258 10 gusting 13 25.6
2015-Jul-07 00:54 223 9 gusting 12 26.7
2015-Jul-07 00:48 239 8 gusting 14 26.1
2015-Jul-07 00:36 210 13 gusting 13 27.8
2015-Jul-07 00:30 196 11 gusting 14 27.8
2015-Jul-07 00:24 176 13 gusting 15 27.8
2015-Jul-07 00:18 172 14 gusting 16 27.8
2015-Jul-07 00:12 169 15 gusting 19 27.8
2015-Jul-07 00:06 174 16 gusting 19 27.8
2015-Jul-06 23:48 168 16 gusting 18 27.8
2015-Jul-06 23:36 166 15 gusting 17 27.8
2015-Jul-06 23:30 169 13 gusting 15 27.8
2015-Jul-06 23:24 165 13 gusting 16 27.8
2015-Jul-06 23:18 171 13 gusting 16 27.8
2015-Jul-06 23:12 164 14 gusting 17 27.8
2015-Jul-06 23:06 172 12 gusting 14 27.8
2015-Jul-06 23:00 160 13 gusting 16 27.2
2015-Jul-06 22:54 167 14 gusting 18 27.2
2015-Jul-06 22:48 164 15 gusting 16 27.2
2015-Jul-06 22:42 160 14 gusting 16 27.2
2015-Jul-06 22:36 162 13 gusting 17 27.8
2015-Jul-06 22:30 157 14 gusting 17 27.8
2015-Jul-06 22:24 156 15 gusting 17 27.8
2015-Jul-06 22:18 154 15 gusting 18 27.8
2015-Jul-06 22:12 156 13 gusting 17 27.8
2015-Jul-06 22:06 149 14 gusting 17 27.8
2015-Jul-06 22:00 149 14 gusting 16 27.8
2015-Jul-06 21:54 150 14 gusting 17 27.8
2015-Jul-06 21:48 149 16 gusting 18 27.8
2015-Jul-06 21:42 151 13 gusting 17 27.8
2015-Jul-06 21:36 151 14 gusting 16 27.8
2015-Jul-06 21:30 149 13 gusting 15 27.8
2015-Jul-06 21:24 152 13 gusting 17 27.8
2015-Jul-06 21:18 156 14 gusting 17 27.8
2015-Jul-06 21:12 157 15 gusting 18 27.8
2015-Jul-06 21:06 156 16 gusting 19 27.8
2015-Jul-06 21:00 151 16 gusting 17 27.8
2015-Jul-06 20:54 150 12 gusting 13 27.8
2015-Jul-06 20:48 153 13 gusting 14 27.8
2015-Jul-06 20:36 152 14 gusting 15 27.8
2015-Jul-06 20:30 156 13 gusting 13 27.8
2015-Jul-06 20:24 151 13 gusting 14 27.2
2015-Jul-06 20:18 151 13 gusting 14 27.2
2015-Jul-06 20:12 152 13 gusting 13 27.2
2015-Jul-06 20:06 148 12 gusting 14 27.2
2015-Jul-06 20:00 149 13 gusting 14 27.2
2015-Jul-06 19:54 150 13 gusting 14 27.8
2015-Jul-06 19:48 150 12 gusting 13 27.2
2015-Jul-06 19:36 147 12 gusting 13 27.2
2015-Jul-06 19:30 141 12 gusting 13 27.2
2015-Jul-06 19:24 145 9 gusting 11 27.2
2015-Jul-06 19:18 146 9 gusting 11 27.2
2015-Jul-06 19:12 141 9 gusting 10 27.2
2015-Jul-06 19:06 144 9 gusting 11 27.2
2015-Jul-06 19:00 155 9 gusting 11 27.2
2015-Jul-06 18:54 149 9 gusting 11 27.2
2015-Jul-06 18:48 147 9 gusting 11 27.2
2015-Jul-06 18:36 142 9 gusting 11 27.2
2015-Jul-06 18:30 141 9 gusting 12 27.2
2015-Jul-06 18:24 142 11 gusting 12 26.7
2015-Jul-06 18:18 146 10 gusting 12 26.7
2015-Jul-06 18:12 143 9 gusting 12 27.2
2015-Jul-06 18:06 150 10 gusting 12 27.2
2015-Jul-06 18:00 149 10 gusting 13 26.7
2015-Jul-06 17:54 145 9 gusting 13 26.7
2015-Jul-06 17:48 149 11 gusting 12 26.7
2015-Jul-06 17:36 147 11 gusting 12 26.7
2015-Jul-06 17:30 151 9 gusting 11 26.7
2015-Jul-06 17:24 150 9 gusting 10 26.7
2015-Jul-06 17:18 150 9 gusting 11 26.7
2015-Jul-06 17:12 150 9 gusting 10 26.7
2015-Jul-06 17:06 151 8 gusting 9 26.7
2015-Jul-06 17:00 147 8 gusting 10 26.7
2015-Jul-06 16:54 155 8 gusting 9 26.7
2015-Jul-06 16:48 152 8 gusting 10 26.7
2015-Jul-06 16:36 154 9 gusting 10 26.1
2015-Jul-06 16:30 151 9 gusting 11 26.1
2015-Jul-06 16:24 147 9 gusting 11 26.7
2015-Jul-06 16:18 150 9 gusting 11 26.1
2015-Jul-06 16:12 149 9 gusting 11 26.1
2015-Jul-06 16:06 139 8 gusting 9 26.1
2015-Jul-06 16:00 143 7 gusting 9 26.1
2015-Jul-06 15:54 143 8 gusting 10 25.6
2015-Jul-06 15:48 147 7 gusting 10 26.1
2015-Jul-06 15:36 150 7 gusting 9 25.6
2015-Jul-06 15:30 146 7 gusting 8 26.1
2015-Jul-06 15:24 151 6 gusting 9 26.1
2015-Jul-06 15:18 141 7 gusting 9 25.6
2015-Jul-06 15:12 145 8 gusting 9 25.6
2015-Jul-06 15:06 152 8 gusting 11 25.6
2015-Jul-06 15:00 147 9 gusting 10 25.6
2015-Jul-06 14:54 145 10 gusting 12 25.6
2015-Jul-06 14:48 158 8 gusting 9 25.6
2015-Jul-06 14:36 159 9 gusting 10 25.6
2015-Jul-06 14:30 160 8 gusting 10 25.6
2015-Jul-06 14:24 154 9 gusting 10 25.6
2015-Jul-06 14:18 157 9 gusting 10 25.6
2015-Jul-06 14:12 155 9 gusting 11 25.6
2015-Jul-06 14:06 148 9 gusting 11 25.6
2015-Jul-06 14:00 153 9 gusting 12 25.6
2015-Jul-06 13:54 155 9 gusting 12 25.6
2015-Jul-06 13:48 163 11 gusting 13 25.6
2015-Jul-06 13:36 155 11 gusting 13 25.6
2015-Jul-06 13:30 160 12 gusting 13 25.6
2015-Jul-06 13:24 153 12 gusting 13 25.0
2015-Jul-06 13:18 160 12 gusting 13 25.0
2015-Jul-06 13:12 157 13 gusting 14 25.0
2015-Jul-06 13:06 158 10 gusting 13 25.6
2015-Jul-06 13:00 161 9 gusting 11 25.6
2015-Jul-06 12:54 181 10 gusting 12 25.6
2015-Jul-06 12:48 180 11 gusting 12 25.6
2015-Jul-06 12:36 178 10 gusting 13 25.0
2015-Jul-06 12:30 174 10 gusting 12 25.0
2015-Jul-06 12:24 175 10 gusting 13 25.0
2015-Jul-06 12:18 171 11 gusting 13 25.0
2015-Jul-06 12:12 165 10 gusting 13 25.0
2015-Jul-06 12:06 168 11 gusting 12 25.0
2015-Jul-06 12:00 148 10 gusting 12 24.4
2015-Jul-06 11:54 156 11 gusting 12 24.4
2015-Jul-06 11:48 161 9 gusting 11 25.0
2015-Jul-06 11:36 157 10 gusting 12 25.0
2015-Jul-06 11:30 155 10 gusting 11 25.0
2015-Jul-06 11:24 149 9 gusting 11 25.0
2015-Jul-06 11:18 145 10 gusting 12 24.4
2015-Jul-06 11:12 146 9 gusting 11 24.4
2015-Jul-06 11:06 144 9 gusting 11 24.4
2015-Jul-06 11:00 150 8 gusting 10 24.4
2015-Jul-06 10:54 147 9 gusting 11 24.4
2015-Jul-06 10:48 142 9 gusting 12 24.4
2015-Jul-06 10:42 144 11 gusting 13 24.4
2015-Jul-06 10:36 143 11 gusting 13 24.4
2015-Jul-06 10:30 143 11 gusting 13 24.4
2015-Jul-06 10:24 134 10 gusting 13 24.4
2015-Jul-06 10:18 130 11 gusting 13 24.4
2015-Jul-06 10:12 129 11 gusting 12 23.9
2015-Jul-06 10:06 135 10 gusting 11 23.9
2015-Jul-06 10:00 124 9 gusting 10 23.9
2015-Jul-06 09:54 127 9 gusting 10 23.9
2015-Jul-06 09:48 117 9 gusting 11 23.9
2015-Jul-06 09:42 120 8 gusting 10 23.9
2015-Jul-06 09:36 123 8 gusting 10 23.9
2015-Jul-06 09:30 111 9 gusting 10 23.9
2015-Jul-06 09:24 114 8 gusting 9 23.9
2015-Jul-06 09:18 123 7 gusting 10 23.9
2015-Jul-06 09:12 133 8 gusting 10 23.9
2015-Jul-06 09:06 135 8 gusting 11 23.9
2015-Jul-06 09:00 126 7 gusting 9 23.9
2015-Jul-06 08:54 117 8 gusting 10 23.3
2015-Jul-06 08:48 115 9 gusting 11 23.9
2015-Jul-06 08:42 123 8 gusting 9 23.9
2015-Jul-06 08:36 114 7 gusting 8 23.9
2015-Jul-06 08:30 108 6 gusting 7 23.9
2015-Jul-06 08:24 106 6 gusting 7 23.9
2015-Jul-06 08:18 103 6 gusting 8 23.9
2015-Jul-06 08:12 093 6 gusting 8 23.9
2015-Jul-06 08:06 102 6 gusting 8 23.9
2015-Jul-06 08:00 105 6 gusting 8 23.9
2015-Jul-06 07:54 112 6 gusting 9 24.4
2015-Jul-06 07:48 111 7 gusting 8 24.4
2015-Jul-06 07:36 111 6 gusting 9 24.4
2015-Jul-06 07:30 125 7 gusting 8 24.4
2015-Jul-06 07:24 134 7 gusting 8 24.4
2015-Jul-06 07:18 130 7 gusting 8 24.4
2015-Jul-06 07:12 133 6 gusting 9 24.4
2015-Jul-06 07:06 139 6 gusting 7 24.4
2015-Jul-06 07:00 130 6 gusting 9 24.4
2015-Jul-06 06:54 126 6 gusting 7 24.4
2015-Jul-06 06:48 131 6 gusting 8 24.4
2015-Jul-06 06:42 128 6 gusting 8 24.4
2015-Jul-06 06:36 117 6 gusting 9 24.4
2015-Jul-06 06:30 119 6 gusting 9 24.4
2015-Jul-06 06:24 117 7 gusting 8 24.4
2015-Jul-06 06:18 124 6 gusting 8 24.4
2015-Jul-06 06:12 130 7 gusting 9 24.4
2015-Jul-06 06:06 133 7 gusting 9 24.4
2015-Jul-06 06:00 124 7 gusting 9 24.4
2015-Jul-06 05:54 125 7 gusting 8 24.4
2015-Jul-06 05:48 125 6 gusting 9 24.4
2015-Jul-06 05:36 127 6 gusting 8 24.4
2015-Jul-06 05:30 132 6 gusting 8 24.4
2015-Jul-06 05:24 126 7 gusting 10 24.4
2015-Jul-06 05:18 123 8 gusting 11 24.4
2015-Jul-06 05:12 122 9 gusting 10 24.4
2015-Jul-06 05:06 122 9 gusting 10 24.4
2015-Jul-06 05:00 123 8 gusting 11 24.4
2015-Jul-06 04:54 131 9 gusting 11 24.4
2015-Jul-06 04:48 124 9 gusting 12 24.4
2015-Jul-06 04:42 126 9 gusting 10 24.4
2015-Jul-06 04:36 129 8 gusting 11 24.4
2015-Jul-06 04:30 134 9 gusting 10 24.4
2015-Jul-06 04:24 126 8 gusting 10 24.4
2015-Jul-06 04:18 125 9 gusting 11 24.4
2015-Jul-06 04:12 134 9 gusting 11 24.4
2015-Jul-06 04:06 131 8 gusting 9 24.4
2015-Jul-06 04:00 133 8 gusting 10 24.4
2015-Jul-06 03:54 131 6 gusting 8 24.4
2015-Jul-06 03:48 126 7 gusting 8 24.4
2015-Jul-06 03:42 130 7 gusting 8 24.4
2015-Jul-06 03:36 123 7 gusting 8 24.4
2015-Jul-06 03:30 119 7 gusting 9 24.4
2015-Jul-06 03:24 120 6 gusting 8 24.4
2015-Jul-06 03:18 133 6 gusting 9 24.4
2015-Jul-06 03:12 139 8 gusting 11 24.4
2015-Jul-06 03:06 142 9 gusting 12 24.4
2015-Jul-06 03:00 146 10 gusting 12 24.4
2015-Jul-06 02:54 138 9 gusting 11 24.4
2015-Jul-06 02:48 134 9 gusting 10 25.0
2015-Jul-06 02:42 138 10 gusting 12 24.4
2015-Jul-06 02:36 146 10 gusting 12 25.0
2015-Jul-06 02:30 151 11 gusting 12 25.0
2015-Jul-06 02:24 156 11 gusting 13 25.0
2015-Jul-06 02:18 149 11 gusting 13 25.0
2015-Jul-06 02:12 139 10 gusting 12 25.0
2015-Jul-06 02:06 141 11 gusting 12 25.0
2015-Jul-06 02:00 134 9 gusting 12 25.0
2015-Jul-06 01:54 143 10 gusting 12 25.0
2015-Jul-06 01:48 136 9 gusting 12 25.0
2015-Jul-06 01:42 128 9 gusting 11 25.0
2015-Jul-06 01:36 131 10 gusting 12 25.0
2015-Jul-06 01:30 137 10 gusting 12 25.0
2015-Jul-06 01:24 135 10 gusting 13 25.0
2015-Jul-06 01:18 143 11 gusting 13 25.0
2015-Jul-06 01:12 152 11 gusting 13 25.0
2015-Jul-06 01:06 143 11 gusting 12 25.6
2015-Jul-06 01:00 143 11 gusting 13 25.6
2015-Jul-06 00:54 160 11 gusting 13 25.6
2015-Jul-06 00:48 156 12 gusting 13 25.6
2015-Jul-06 00:36 166 13 gusting 14 25.6
2015-Jul-06 00:30 166 11 gusting 13 26.1
2015-Jul-06 00:24 157 11 gusting 13 26.1
2015-Jul-06 00:18 176 12 gusting 14 26.1
2015-Jul-06 00:12 162 13 gusting 14 26.1
2015-Jul-06 00:06 173 12 gusting 13 26.1
2015-Jul-05 23:48 155 5 gusting 6 26.7
2015-Jul-05 23:36 162 4 gusting 6 26.1
2015-Jul-05 23:30 173 3 gusting 4 26.7
2015-Jul-05 23:24 144 3 gusting 4 26.1
2015-Jul-05 23:18 133 2 gusting 3 26.1
2015-Jul-05 23:12 152 1 gusting 3 26.1
2015-Jul-05 23:06 165 1 gusting 1 26.7
2015-Jul-05 23:00 212 26.7
2015-Jul-05 22:54 215 0 gusting 1 26.7
2015-Jul-05 22:48 138 0 gusting 0 26.1
2015-Jul-05 22:42 173 26.7
2015-Jul-05 22:36 263 0 gusting 2 26.1
2015-Jul-05 22:30 259 2 gusting 2 26.1
2015-Jul-05 22:24 289 0 gusting 3 26.1
2015-Jul-05 22:18 297 1 gusting 3 26.1
2015-Jul-05 22:12 320 2 gusting 3 26.1
2015-Jul-05 22:06 303 2 gusting 4 26.1
2015-Jul-05 22:00 292 3 gusting 3 26.1
2015-Jul-05 21:54 251 2 gusting 4 26.7
2015-Jul-05 21:48 275 3 gusting 5 26.1
2015-Jul-05 21:42 276 4 gusting 5 26.1
2015-Jul-05 21:36 277 4 gusting 5 26.1
2015-Jul-05 21:30 279 3 gusting 4 26.1
2015-Jul-05 21:24 275 2 gusting 4 26.1
2015-Jul-05 21:18 269 2 gusting 4 26.1
2015-Jul-05 21:12 269 3 gusting 5 26.1
2015-Jul-05 21:06 286 3 gusting 5 26.1
2015-Jul-05 21:00 272 3 gusting 4 26.1
2015-Jul-05 20:54 267 3 gusting 4 26.1
2015-Jul-05 20:48 270 4 gusting 5 25.6
2015-Jul-05 20:36 266 3 gusting 5 25.6
2015-Jul-05 20:30 278 3 gusting 5 25.6
2015-Jul-05 20:24 293 4 gusting 5 25.6
2015-Jul-05 20:18 259 4 gusting 5 25.6
2015-Jul-05 20:12 255 4 gusting 5 25.6
2015-Jul-05 20:06 268 5 gusting 5 25.6
2015-Jul-05 20:00 253 4 gusting 6 25.6
2015-Jul-05 19:54 270 5 gusting 6 25.6
2015-Jul-05 19:48 264 4 gusting 6 25.6
2015-Jul-05 19:36 256 5 gusting 6 25.6
2015-Jul-05 19:30 264 5 gusting 6 25.6
2015-Jul-05 19:24 250 5 gusting 6 25.0
2015-Jul-05 19:18 252 4 gusting 5 25.6
2015-Jul-05 19:12 260 3 gusting 5 25.6
2015-Jul-05 19:06 248 4 gusting 4 25.6
2015-Jul-05 19:00 254 3 gusting 4 25.6
2015-Jul-05 18:54 274 3 gusting 4 25.6
2015-Jul-05 18:48 258 3 gusting 5 25.0
2015-Jul-05 18:42 268 3 gusting 5 25.0
2015-Jul-05 18:36 266 5 gusting 6 25.0
2015-Jul-05 18:30 249 5 gusting 6 25.0
2015-Jul-05 18:24 260 5 gusting 6 25.0
2015-Jul-05 18:18 253 6 gusting 7 25.0
2015-Jul-05 18:12 246 4 gusting 5 25.0
2015-Jul-05 18:06 259 4 gusting 6 25.0
2015-Jul-05 18:00 266 4 gusting 5 25.0
2015-Jul-05 17:54 236 2 gusting 3 25.0
2015-Jul-05 17:48 206 1 gusting 2 25.6
2015-Jul-05 17:42 140 1 gusting 2 25.0
2015-Jul-05 17:36 133 1 gusting 2 25.0
2015-Jul-05 17:30 130 2 gusting 3 25.0
2015-Jul-05 17:24 116 3 gusting 4 25.0
2015-Jul-05 17:18 141 2 gusting 3 25.0
2015-Jul-05 17:12 118 2 gusting 4 24.4
2015-Jul-05 17:06 115 2 gusting 4 24.4
2015-Jul-05 17:00 140 3 gusting 3 24.4